When you browse on this site, cookies collect data to enhance your experience and personalize the content and advertising you see.
Visit our Privacy Policy to learn more. By continuing to use the site, you agree to this use of cookies and data.
  • In Slovakia
  • List of Countries
  • For 7 days
  • Water Temperature
  • Weather Map
  • Weather Widgets
  • user-avatar
    Login

    Hourly Weather Krusznik

    Today, 25 May, Monday

    Time Temperature Precipitation Wind Pressure Humidity
    00:00 +6°C° 0 mm 2 mps 752 mmHg 93%
    01:00 +6°C° 0 mm 2 mps 752 mmHg 94%
    02:00 +6°C° 0 mm 2 mps 752 mmHg 95%
    03:00 +7°C° 0 mm 1 mps 752 mmHg 94%
    04:00 +7°C° 0 mm 1 mps 752 mmHg 94%
    05:00 +7°C° 0 mm 1 mps 752 mmHg 94%
    06:00 +9°C° 0 mm 1 mps 752 mmHg 89%
    07:00 +9°C° 0 mm 0 mps 753 mmHg 85%
    08:00 +11°C° 0 mm 0 mps 753 mmHg 80%
    09:00 +13°C° 0.5 mm 1 mps 753 mmHg 78%
    10:00 +14°C° 0.5 mm 1 mps 753 mmHg 75%
    11:00 +15°C° 0.5 mm 1 mps 753 mmHg 73%
    12:00 +15°C° 0.7 mm 1 mps 753 mmHg 71%
    13:00 +16°C° 0.7 mm 1 mps 753 mmHg 69%
    14:00 +16°C° 0.7 mm 1 mps 753 mmHg 67%
    15:00 +16°C° 0.7 mm 1 mps 753 mmHg 67%
    16:00 +16°C° 0.7 mm 2 mps 753 mmHg 68%
    17:00 +17°C° 0.7 mm 2 mps 753 mmHg 68%
    18:00 +15°C° 0.5 mm 2 mps 753 mmHg 74%
    19:00 +14°C° 0.5 mm 2 mps 754 mmHg 80%
    20:00 +13°C° 0.5 mm 2 mps 754 mmHg 86%
    21:00 +12°C° 0 mm 2 mps 755 mmHg 88%
    22:00 +10°C° 0 mm 2 mps 755 mmHg 90%
    23:00 +9°C° 0 mm 2 mps 755 mmHg 92%

    Tomorrow, 26 May, Tuesday

    Time Temperature Precipitation Wind Pressure Humidity
    00:00 +9°C° 0 mm 2 mps 755 mmHg 93%
    01:00 +8°C° 0 mm 2 mps 756 mmHg 93%
    02:00 +8°C° 0 mm 2 mps 756 mmHg 94%
    03:00 +8°C° 0 mm 2 mps 756 mmHg 95%
    04:00 +7°C° 0 mm 3 mps 756 mmHg 95%
    05:00 +7°C° 0 mm 3 mps 757 mmHg 96%
    06:00 +9°C° 0 mm 3 mps 757 mmHg 92%
    07:00 +11°C° 0 mm 3 mps 757 mmHg 88%
    08:00 +13°C° 0 mm 3 mps 758 mmHg 85%
    09:00 +14°C° 0.1 mm 4 mps 758 mmHg 79%
    10:00 +15°C° 0.1 mm 4 mps 758 mmHg 72%
    11:00 +17°C° 0.1 mm 5 mps 758 mmHg 66%
    12:00 +18°C° 0.4 mm 4 mps 758 mmHg 67%
    13:00 +18°C° 0.4 mm 4 mps 758 mmHg 67%
    14:00 +19°C° 0.4 mm 4 mps 757 mmHg 67%
    15:00 +17°C° 0.5 mm 5 mps 757 mmHg 70%
    16:00 +17°C° 0.5 mm 5 mps 757 mmHg 72%
    17:00 +17°C° 0.5 mm 5 mps 757 mmHg 74%
    18:00 +17°C° 0.2 mm 4 mps 757 mmHg 77%
    19:00 +14°C° 0.2 mm 4 mps 758 mmHg 80%
    20:00 +13°C° 0.2 mm 3 mps 758 mmHg 83%
    21:00 +12°C° 0 mm 3 mps 758 mmHg 85%
    22:00 +11°C° 0 mm 3 mps 758 mmHg 86%
    23:00 +10°C° 0 mm 4 mps 758 mmHg 87%

    Day after tomorrow, 27 May, Wednesday

    Time Temperature Precipitation Wind Pressure Humidity
    00:00 +9°C° 0 mm 3 mps 758 mmHg 86%
    01:00 +8°C° 0 mm 3 mps 758 mmHg 86%
    02:00 +8°C° 0 mm 3 mps 758 mmHg 85%
    03:00 +7°C° 0 mm 3 mps 758 mmHg 85%
    04:00 +7°C° 0 mm 3 mps 758 mmHg 84%
    05:00 +7°C° 0 mm 3 mps 757 mmHg 84%
    06:00 +9°C° 0 mm 3 mps 758 mmHg 79%
    07:00 +11°C° 0 mm 3 mps 758 mmHg 73%
    08:00 +13°C° 0 mm 3 mps 758 mmHg 68%
    09:00 +14°C° 0 mm 3 mps 758 mmHg 65%
    10:00 +15°C° 0 mm 4 mps 757 mmHg 61%
    11:00 +18°C° 0 mm 4 mps 757 mmHg 57%
    12:00 +18°C° 0.1 mm 4 mps 757 mmHg 57%
    13:00 +18°C° 0.1 mm 4 mps 756 mmHg 57%
    14:00 +19°C° 0.1 mm 5 mps 756 mmHg 57%
    15:00 +17°C° 0.2 mm 5 mps 755 mmHg 62%
    16:00 +16°C° 0.2 mm 5 mps 755 mmHg 67%
    17:00 +16°C° 0.2 mm 5 mps 755 mmHg 72%
    18:00 +15°C° 0.2 mm 4 mps 755 mmHg 77%
    19:00 +13°C° 0.2 mm 3 mps 754 mmHg 83%
    20:00 +12°C° 0.2 mm 3 mps 754 mmHg 88%
    21:00 +12°C° 0 mm 2 mps 754 mmHg 90%
    22:00 +10°C° 0 mm 2 mps 754 mmHg 92%
    23:00 +10°C° 0 mm 1 mps 754 mmHg 93%

    28 May, Thursday

    Time Temperature Precipitation Wind Pressure Humidity
    00:00 +10°C° 0 mm 1 mps 753 mmHg 94%
    01:00 +10°C° 0 mm 1 mps 753 mmHg 94%
    02:00 +9°C° 0 mm 2 mps 753 mmHg 95%
    03:00 +9°C° 0 mm 2 mps 752 mmHg 95%
    04:00 +9°C° 0 mm 2 mps 752 mmHg 94%
    05:00 +9°C° 0 mm 2 mps 752 mmHg 94%
    06:00 +10°C° 0 mm 2 mps 751 mmHg 90%
    07:00 +11°C° 0 mm 3 mps 751 mmHg 85%
    08:00 +11°C° 0 mm 3 mps 751 mmHg 80%
    09:00 +12°C° 0 mm 3 mps 751 mmHg 75%
    10:00 +14°C° 0 mm 3 mps 751 mmHg 71%
    11:00 +16°C° 0 mm 3 mps 750 mmHg 66%
    12:00 +16°C° 0.3 mm 3 mps 750 mmHg 65%
    13:00 +17°C° 0.3 mm 3 mps 750 mmHg 64%
    14:00 +17°C° 0.3 mm 3 mps 750 mmHg 63%
    15:00 +17°C° 0.7 mm 4 mps 750 mmHg 68%
    16:00 +15°C° 0.7 mm 4 mps 749 mmHg 73%
    17:00 +15°C° 0.7 mm 5 mps 749 mmHg 78%
    18:00 +13°C° 0.7 mm 5 mps 750 mmHg 81%
    19:00 +12°C° 0.7 mm 5 mps 750 mmHg 85%
    20:00 +10°C° 0.7 mm 5 mps 750 mmHg 89%
    21:00 +9°C° 0.1 mm 5 mps 750 mmHg 89%
    22:00 +8°C° 0.1 mm 5 mps 750 mmHg 90%
    23:00 +7°C° 0.1 mm 4 mps 750 mmHg 91%

    29 May, Friday

    Time Temperature Precipitation Wind Pressure Humidity
    00:00 +6°C° 0 mm 4 mps 750 mmHg 91%
    01:00 +5°C° 0 mm 4 mps 750 mmHg 91%
    02:00 +3°C° 0 mm 5 mps 750 mmHg 91%
    03:00 +3°C° 0 mm 4 mps 750 mmHg 91%
    04:00 +3°C° 0 mm 4 mps 750 mmHg 90%
    05:00 +1°C° 0 mm 4 mps 750 mmHg 90%
    06:00 +3°C° 0 mm 5 mps 750 mmHg 85%
    07:00 +6°C° 0 mm 5 mps 750 mmHg 80%
    08:00 +7°C° 0 mm 5 mps 750 mmHg 74%
    09:00 +8°C° 0 mm 5 mps 749 mmHg 69%
    10:00 +10°C° 0 mm 5 mps 749 mmHg 64%
    11:00 +12°C° 0 mm 5 mps 749 mmHg 59%
    12:00 +13°C° 0 mm 4 mps 749 mmHg 59%
    13:00 +13°C° 0 mm 4 mps 748 mmHg 59%
    14:00 +13°C° 0 mm 4 mps 748 mmHg 59%
    15:00 +13°C° 0 mm 4 mps 748 mmHg 60%
    16:00 +13°C° 0 mm 3 mps 748 mmHg 61%
    17:00 +13°C° 0 mm 3 mps 747 mmHg 63%
    18:00 +12°C° 0 mm 3 mps 747 mmHg 69%
    19:00 +12°C° 0 mm 2 mps 747 mmHg 76%
    20:00 +9°C° 0 mm 2 mps 747 mmHg 82%
    21:00 +9°C° 0 mm 2 mps 747 mmHg 86%
    22:00 +8°C° 0 mm 2 mps 747 mmHg 90%
    23:00 +7°C° 0 mm 2 mps 747 mmHg 94%

    30 May, Saturday

    Time Temperature Precipitation Wind Pressure Humidity
    00:00 +7°C° 0 mm 2 mps 747 mmHg 95%
    01:00 +7°C° 0 mm 2 mps 747 mmHg 96%
    02:00 +6°C° 0 mm 2 mps 747 mmHg 97%
    03:00 +6°C° 0 mm 2 mps 747 mmHg 97%
    04:00 +6°C° 0 mm 2 mps 747 mmHg 97%
    05:00 +6°C° 0 mm 2 mps 747 mmHg 97%
    06:00 +8°C° 0 mm 2 mps 748 mmHg 92%
    07:00 +9°C° 0 mm 3 mps 748 mmHg 88%
    08:00 +10°C° 0 mm 3 mps 748 mmHg 83%
    09:00 +11°C° 0 mm 3 mps 748 mmHg 76%
    10:00 +13°C° 0 mm 3 mps 748 mmHg 70%
    11:00 +14°C° 0 mm 3 mps 748 mmHg 63%
    12:00 +16°C° 0 mm 3 mps 748 mmHg 60%
    13:00 +17°C° 0 mm 4 mps 748 mmHg 58%
    14:00 +17°C° 0 mm 4 mps 748 mmHg 56%
    15:00 +17°C° 0 mm 4 mps 748 mmHg 56%
    16:00 +17°C° 0 mm 4 mps 748 mmHg 57%
    17:00 +17°C° 0 mm 3 mps 748 mmHg 57%
    18:00 +16°C° 0 mm 3 mps 748 mmHg 64%
    19:00 +14°C° 0 mm 2 mps 748 mmHg 70%
    20:00 +13°C° 0 mm 1 mps 748 mmHg 76%
    21:00 +12°C° 0 mm 1 mps 748 mmHg 79%
    22:00 +11°C° 0 mm 1 mps 748 mmHg 82%
    23:00 +9°C° 0 mm 1 mps 748 mmHg 85%
    Show more